Printer-friendly version

IAU Minor Planet Center

Minor Planet Center

MPEC 2000-R09: 2000 QK130

The following Minor Planet Electronic Circular may be linked-to from your own Web pages, but must not otherwise be redistributed electronically.


Read MPEC 2000-R08 Read MPEC 2000-R10


M.P.E.C. 2000-R09                                Issued 2000 Sept. 2, 21:30 UT

     The Minor Planet Electronic Circulars contain information on unusual
         minor planets and routine data on comets.  They are published
   on behalf of Commission 20 of the International Astronomical Union by the
          Minor Planet Center, Smithsonian Astrophysical Observatory,
                          Cambridge, MA 02138, U.S.A.

             Prepared using the Tamkin Foundation Computer Network

             BMARSDEN@CFA.HARVARD.EDU or GWILLIAMS@CFA.HARVARD.EDU
          URL http://cfa-www.harvard.edu/iau/mpc.html  ISSN 1523-6714

                                  2000 QK130

Observations:
     K00QD0K* C2000 08 31.24762 22 15 00.93 +01 22 00.0          17.8        704
     K00QD0K  C2000 08 31.26086 22 15 00.23 +01 21 12.7          17.7        704
     K00QD0K  C2000 08 31.27408 22 14 59.49 +01 20 24.9          17.7        704
     K00QD0K  C2000 08 31.28734 22 14 58.79 +01 19 37.1          17.5        704
     K00QD0K  C2000 08 31.30059 22 14 58.06 +01 18 49.3          18.1        704
     K00QD0K  C2000 08 31.87509 22 14 42.48 +00 44 41.8                      557
     K00QD0K  C2000 08 31.87671 22 14 42.38 +00 44 35.4                      557
     K00QD0K  C2000 08 31.87836 22 14 42.28 +00 44 30.3                      557
     K00QD0K  C2000 09 01.18753 22 14 34.32 +00 26 57.6          17.4        704
     K00QD0K  C2000 09 01.18762 22 14 34.30 +00 26 57.6          17.6        704
     K00QD0K  C2000 09 01.18772 22 14 34.31 +00 26 56.6          17.9        704
     K00QD0K  C2000 09 01.20078 22 14 33.68 +00 26 12.3          17.5        704
     K00QD0K  C2000 09 01.20088 22 14 33.67 +00 26 11.7          17.9        704
     K00QD0K  C2000 09 01.20098 22 14 33.68 +00 26 11.8          17.8        704
     K00QD0K  C2000 09 01.20180 22 14 33.52 +00 26 11.4                      711
     K00QD0K  C2000 09 01.20585 22 14 33.31 +00 25 57.8                      711
     K00QD0K  C2000 09 01.20978 22 14 33.12 +00 25 44.5                      711
     K00QD0K  C2000 09 01.21394 22 14 33.06 +00 25 27.4          18.0        704
     K00QD0K  C2000 09 01.21404 22 14 33.03 +00 25 27.0          17.7        704
     K00QD0K  C2000 09 01.21414 22 14 33.02 +00 25 26.9          17.8        704
     K00QD0K  C2000 09 01.22715 22 14 32.39 +00 24 42.6          17.5        704
     K00QD0K  C2000 09 01.22725 22 14 32.38 +00 24 42.0          18.0        704
     K00QD0K  C2000 09 01.22735 22 14 32.41 +00 24 42.0          17.9        704
     K00QD0K  C2000 09 01.24034 22 14 31.75 +00 23 57.6          17.7        704
     K00QD0K  C2000 09 01.24044 22 14 31.72 +00 23 57.1          18.0        704
     K00QD0K  C2000 09 01.24054 22 14 31.72 +00 23 56.8          18.0        704
     K00QD0K  C2000 09 01.78899 22 14 18.36 -00 06 54.7          16.8 R      046
     K00QD0K  C2000 09 01.78997 22 14 18.21 -00 06 56.9                      046
     K00QD0K  C2000 09 01.79093 22 14 18.21 -00 06 59.7                      046
     K00QD0K  C2000 09 01.79381 22 14 18.09 -00 07 10.5                      046
     K00QD0K  C2000 09 01.79458 22 14 18.02 -00 07 12.7                      046
     K00QD0K  C2000 09 01.79567 22 14 18.03 -00 07 17.1          17.0 R      046
     K00QD0K  C2000 09 01.83807 22 14 16.67 -00 09 34.3          18.8 V      151
     K00QD0K  C2000 09 01.84192 22 14 16.54 -00 09 48.0          19.0 V      151
     K00QD0K  C2000 09 01.84392 22 14 16.40 -00 09 54.4          18.9 V      151
     K00QD0K  C2000 09 01.84471 22 14 16.41 -00 09 57.0          18.6 V      151
     K00QD0K  C2000 09 01.84657 22 14 16.26 -00 10 03.7          18.8 V      151
     K00QD0K  C2000 09 01.84707 22 14 16.15 -00 10 03.5                      595
     K00QD0K  C2000 09 01.84853 22 14 16.26 -00 10 09.8          18.9 V      151
     K00QD0K  C2000 09 01.84951 22 14 15.87 -00 10 14.7                      557
     K00QD0K  C2000 09 01.85115 22 14 15.82 -00 10 20.0                      557
     K00QD0K  C2000 09 01.85340 22 14 15.86 -00 10 24.8          17.5 V      595
     K00QD0K  C2000 09 01.85980 22 14 15.61 -00 10 45.7                      595
     K00QD0K  C2000 09 01.86057 22 14 15.39 -00 10 49.8                      118
     K00QD0K  C2000 09 01.86168 22 14 15.33 -00 10 53.2                      118
     K00QD0K  C2000 09 01.86407 22 14 15.20 -00 11 01.4          17.1 R      118
     K00QD0K  C2000 09 01.88461 22 14 14.49 -00 12 06.7          17.3        106
     K00QD0K  C2000 09 01.88796 22 14 14.62 -00 12 17.7          17.5 R      587
     K00QD0K  C2000 09 01.89051 22 14 14.48 -00 12 25.8                      587
     K00QD0K  C2000 09 01.90133 22 14 13.80 -00 13 01.7          17.0        106
     K00QD0K  C2000 09 01.91809 22 14 13.06 -00 13 56.1          17.1        106
     K00QD0K  C2000 09 02.18624 22 14 07.52 -00 28 14.1                      711
     K00QD0K  C2000 09 02.19078 22 14 07.31 -00 28 28.8                      711
     K00QD0K  C2000 09 02.19499 22 14 07.13 -00 28 42.5                      711

Observer details:
046 Klet.  Observers J. Ticha, M. Tichy.  0.57-m f/5.2 reflector + CCD.
106 Crni Vrh.  Observers H. Mikuz, S. Maticic.  0.36-m f/6.7 Schmidt-Cassegrain
    + CCD.
118 Modra.  Observers A. Galad, J. Toth.  0.6-m f/5.5 reflector + CCD.
151 Eschenberg Observatory, Winterthur.  Observer M. Griesser.  0.40-m f/5.8
    Hypergraph.
557 Ondrejov.  Observers P. Pravec, P. Kusnirak, U. Babiakova.  0.65-m f/3.6 ref
587 Sormano.  Observer F. Manca.  0.5-m reflector + CCD.
595 Farra d'Isonzo.  Observers G. Lombardi, L. Bittesini, E. Pettarin.  0.40-m
    f/4.5 reflector + CCD.
704 Lincoln Laboratory ETS, New Mexico.  Observers M. Blythe, F. Shelly,
    M. Bezpalko, M. Elowitz, R. Huber, L. Manguso.  Measurers J. Stuart,
    R. Sayer, J. B. Evans, H. Viggh.  1.0-m f/2.15 reflector + CCD.
711 McDonald Observatory.  Observers P. J. Shelus, J. A. Shelus.  0.76-m
    reflector + CCD.

Orbital elements:
2000 QK130                                                           PHA 0.002
Epoch 2000 Aug. 24.0 TT = JDT 2451780.5                 Spahr
M  61.83015              (2000.0)            P               Q
n   0.76845800     Peri.   66.17782     -0.49573554     +0.86843236
a   1.1804727      Node   174.08295     -0.82367739     -0.46705640
e   0.2619957      Incl.    4.70503     -0.27532132     -0.16638375
P   1.28           H   21.2           G   0.15
From 54 observations 2000 Aug. 31-Sept. 2.

Ephemeris:
2000 QK130               a,e,i = 1.18, 0.26, 5                   q = 0.8712
Date    TT    R. A. (2000) Decl.     Delta      r     Elong.  Phase     V
2000 08 24    22 20.17   +10 26.3    0.103    1.108   158.4    19.6    17.5
2000 08 29    22 16.30   +03 47.3    0.122    1.129   166.4    12.2    17.6
2000 09 03    22 13.77   -01 10.3    0.144    1.151   169.1     9.5    17.9
2000 09 08    22 12.47   -04 52.0    0.168    1.172   166.4    11.7    18.4
2000 09 13    22 12.28   -07 36.7    0.195    1.192   161.5    15.5    18.9
2000 09 18    22 13.07   -09 37.9    0.223    1.213   156.3    19.4    19.3
2000 09 23    22 14.76   -11 05.6    0.254    1.232   151.3    23.0    19.8
2000 09 28    22 17.31   -12 06.8    0.287    1.252   146.6    26.1    20.2
2000 10 03    22 20.67   -12 46.7    0.322    1.271   142.2    28.9    20.5
2000 10 08    22 24.77   -13 09.3    0.359    1.289   138.0    31.2    20.9
2000 10 13    22 29.53   -13 17.7    0.398    1.306   134.1    33.3    21.2
2000 10 18    22 34.86   -13 14.4    0.438    1.323   130.4    35.0    21.5
2000 10 23    22 40.70   -13 01.5    0.480    1.339   126.8    36.5    21.7
2000 10 28    22 46.99   -12 40.4    0.524    1.354   123.4    37.8    22.0
2000 11 02    22 53.72   -12 12.1    0.569    1.369   120.1    38.8    22.2

Gareth V. Williams           (C) Copyright 2000 MPC           M.P.E.C. 2000-R09

Read MPEC 2000-R08 Read MPEC 2000-R10


Our Web policy. Index to the CBAT/MPC/ICQ pages.


Valid HTML 4.01!